DW4362 Weather Reports


Display with metric or nautical units.
time (UTC)temp
F
wind
direction
speed
MPH
gust
MPH
rain 1hr
in
rain 24hr
in
rain mn
in
humidity
%
barometer
mb
20260906200214 95 89 0.0 2.0 0.00 0.00 0.00 64 1009.3
20260906193214 93 28 0.0 0.0 0.00 0.00 0.00 63 1009.7
20260906190213 93 63 0.0 0.0 0.00 0.44 0.00 67 1010.1
20260906183214 89 146 2.0 3.0 0.00 0.44 0.00 77 1010.6
20260906180213 91 222 0.0 0.0 0.00 0.44 0.00 70 1011.0
20260906173214 90 135 0.0 0.0 0.00 0.44 0.00 73 1011.4
20260906170213 93 105 0.0 2.0 0.00 0.44 0.00 64 1011.8
20260906160213 92 272 0.0 0.0 0.00 0.44 0.00 71 1011.9
20260906153213 89 139 0.0 0.0 0.00 0.44 0.00 75 1012.0
20260906150213 87 131 0.0 2.0 0.00 0.44 0.00 76 1012.1
20260906143212 88 169 0.0 0.0 0.00 0.44 0.00 77 1012.1
20260906123212 75 198 0.0 0.0 0.00 0.44 0.00 95 1012.3
20260906120212 74 198 0.0 0.0 0.00 0.44 0.00 95 1011.8
20260906113212 74 198 0.0 0.0 0.00 0.45 0.00 95 1011.5
20260906110211 74 198 0.0 0.0 0.00 0.45 0.00 95 1011.3
20260906103211 74 198 0.0 0.0 0.00 0.45 0.00 95 1011.1
20260906100211 74 198 0.0 0.0 0.00 0.45 0.00 95 1010.9
20260906093211 75 198 0.0 0.0 0.00 0.45 0.00 94 1010.8
20260906090211 75 198 0.0 0.0 0.00 0.45 0.00 95 1010.6
20260906083211 75 198 0.0 0.0 0.00 0.45 0.00 94 1010.6
20260906080211 75 198 0.0 0.0 0.00 0.45 0.00 95 1010.4
20260906073211 75 198 0.0 0.0 0.00 0.45 0.00 95 1010.3
20260906070210 76 198 0.0 0.0 0.00 0.45 0.00 95 1010.6
20260906063210 76 198 0.0 0.0 0.00 0.45 0.00 95 1010.3
20260906060210 76 198 0.0 0.0 0.00 0.45 0.00 95 1010.8
20260906053210 76 198 0.0 0.0 0.00 0.45 0.00 95 1010.8
20260906050210 76 198 0.0 0.0 0.00 0.45 0.00 95 1011.2
20260906033209 77 198 0.0 0.0 0.00 0.45 0.45 95 1011.6
20260906030210 78 198 0.0 0.0 0.00 0.45 0.45 94 1011.7
20260906023209 79 198 0.0 0.0 0.00 0.45 0.45 93 1011.5
20260906020210 79 198 0.0 0.0 0.00 0.45 0.45 92 1011.2
20260906013209 80 198 0.0 0.0 0.00 0.45 0.45 91 1010.5
20260906010209 81 146 0.0 0.0 0.00 0.45 0.45 89 1010.3
20260906003210 82 237 0.0 0.0 0.00 0.45 0.45 88 1010.3
20260906000212 83 169 0.0 0.0 0.00 0.45 0.45 87 1010.2
20260905233209 84 120 0.0 0.0 0.00 0.45 0.45 85 1010.3
20260905223208 87 123 0.0 0.0 0.00 0.45 0.45 79 1010.7
20260905220209 89 223 0.0 0.0 0.00 0.45 0.45 73 1010.5
20260905210208 88 200 2.0 3.0 0.00 0.45 0.45 76 1010.9
20260905203208 89 184 3.0 3.0 0.00 0.45 0.45 76 1010.8